www.cux-wetter.de
Wetterdaten: Samstag, 29.09.2007
Datum Zeit Temp. A. Feuchte A. Luftdruck Regen Wind Richtung Richtung Sonnenschein Solar Taupunkt Windchill Windben
29.09.2007 00:02 12,4 C 98 % 1004,5 hPa 0,0 l/m 30,9 km/h (5 Bft) N-NO 25 0 min 0 W/m 12,1 C 3,9 C 30,9 km/h (5 Bft)
29.09.2007 00:07 12,4 C 98 % 1003,5 hPa 0,0 l/m 26,8 km/h (4 Bft) N-NO 15 0 min 0 W/m 12,1 C 4,7 C 26,8 km/h (4 Bft)
29.09.2007 00:12 12,4 C 98 % 1003,5 hPa 0,0 l/m 22,0 km/h (4 Bft) NO 35 0 min 0 W/m 12,1 C 5,8 C 22,0 km/h (4 Bft)
29.09.2007 00:17 12,4 C 98 % 1003,5 hPa 0,0 l/m 24,1 km/h (4 Bft) N-NO 25 0 min 0 W/m 12,1 C 5,3 C 24,1 km/h (4 Bft)
29.09.2007 00:22 12,4 C 98 % 1003,5 hPa 0,0 l/m 21,5 km/h (4 Bft) NO 35 0 min 0 W/m 12,1 C 6,0 C 21,5 km/h (4 Bft)
29.09.2007 00:27 12,4 C 98 % 1003,5 hPa 0,0 l/m 25,0 km/h (4 Bft) N-NO 15 0 min 0 W/m 12,1 C 5,1 C 25,0 km/h (4 Bft)
29.09.2007 00:32 12,4 C 98 % 1003,5 hPa 0,0 l/m 27,3 km/h (5 Bft) N-NO 15 0 min 0 W/m 12,1 C 4,6 C 27,3 km/h (5 Bft)
29.09.2007 00:37 12,4 C 98 % 1003,5 hPa 0,0 l/m 34,4 km/h (5 Bft) N-NO 20 0 min 0 W/m 12,1 C 3,3 C 34,4 km/h (5 Bft)
29.09.2007 00:42 12,4 C 98 % 1003,5 hPa 0,0 l/m 25,6 km/h (4 Bft) NO 35 0 min 0 W/m 12,1 C 4,9 C 25,6 km/h (4 Bft)
29.09.2007 00:46 12,4 C 98 % 1003,5 hPa 0,0 l/m 28,6 km/h (5 Bft) N-NO 15 0 min 0 W/m 12,1 C 4,3 C 28,6 km/h (5 Bft)
29.09.2007 00:52 12,4 C 98 % 1003,5 hPa 0,0 l/m 28,6 km/h (5 Bft) N-NO 15 0 min 0 W/m 12,1 C 4,3 C 28,6 km/h (5 Bft)
29.09.2007 00:57 12,4 C 98 % 1003,5 hPa 0,0 l/m 24,3 km/h (4 Bft) N-NO 25 0 min 0 W/m 12,1 C 5,3 C 24,3 km/h (4 Bft)
29.09.2007 01:02 12,4 C 98 % 1003,5 hPa 0,0 l/m 26,3 km/h (4 Bft) N-NO 15 0 min 0 W/m 12,1 C 4,8 C 26,3 km/h (4 Bft)
29.09.2007 01:07 12,4 C 98 % 1003,5 hPa 0,0 l/m 28,6 km/h (5 Bft) N 10 0 min 0 W/m 12,1 C 4,3 C 28,6 km/h (5 Bft)
29.09.2007 01:12 12,4 C 98 % 1003,5 hPa 0,0 l/m 32,2 km/h (5 Bft) N 10 0 min 0 W/m 12,1 C 3,6 C 32,2 km/h (5 Bft)
29.09.2007 01:17 12,4 C 98 % 1002,5 hPa 0,0 l/m 25,1 km/h (4 Bft) N-NO 15 0 min 0 W/m 12,1 C 5,1 C 25,1 km/h (4 Bft)
29.09.2007 01:22 12,4 C 98 % 1002,5 hPa 0,0 l/m 27,7 km/h (5 Bft) NO 35 0 min 0 W/m 12,1 C 4,5 C 27,7 km/h (5 Bft)
29.09.2007 01:27 12,4 C 98 % 1002,5 hPa 0,0 l/m 30,2 km/h (5 Bft) N-NO 20 0 min 0 W/m 12,1 C 4,0 C 30,2 km/h (5 Bft)
29.09.2007 01:32 12,4 C 98 % 1002,5 hPa 0,0 l/m 26,2 km/h (4 Bft) NO 35 0 min 0 W/m 12,1 C 4,8 C 26,2 km/h (4 Bft)
29.09.2007 01:37 12,4 C 98 % 1002,5 hPa 0,3 l/m 30,2 km/h (5 Bft) N-NO 30 0 min 0 W/m 12,1 C 4,0 C 30,2 km/h (5 Bft)
29.09.2007 01:42 12,4 C 98 % 1002,5 hPa 0,0 l/m 28,6 km/h (5 Bft) N-NO 25 0 min 0 W/m 12,1 C 4,3 C 28,6 km/h (5 Bft)
29.09.2007 01:47 12,4 C 98 % 1002,5 hPa 0,6 l/m 26,5 km/h (4 Bft) N-NO 15 0 min 0 W/m 12,1 C 4,7 C 26,5 km/h (4 Bft)
29.09.2007 01:52 12,4 C 98 % 1002,5 hPa 0,0 l/m 30,5 km/h (5 Bft) NO 35 0 min 0 W/m 12,1 C 3,9 C 30,5 km/h (5 Bft)
29.09.2007 01:57 12,4 C 98 % 1002,5 hPa 0,3 l/m 29,4 km/h (5 Bft) N-NO 20 0 min 0 W/m 12,1 C 4,1 C 29,4 km/h (5 Bft)
29.09.2007 02:02 12,3 C 98 % 1002,5 hPa 0,0 l/m 25,0 km/h (4 Bft) N-NO 20 0 min 0 W/m 12,0 C 4,9 C 25,0 km/h (4 Bft)
29.09.2007 02:07 12,3 C 98 % 1002,5 hPa 0,3 l/m 29,1 km/h (5 Bft) NO 35 0 min 0 W/m 12,0 C 4,1 C 29,1 km/h (5 Bft)
29.09.2007 02:12 12,3 C 98 % 1002,5 hPa 0,0 l/m 28,7 km/h (5 Bft) NO 35 0 min 0 W/m 12,0 C 4,1 C 28,7 km/h (5 Bft)
29.09.2007 02:17 12,2 C 98 % 1002,5 hPa 0,3 l/m 26,1 km/h (4 Bft) N-NO 20 0 min 0 W/m 11,9 C 4,6 C 26,1 km/h (4 Bft)
29.09.2007 02:22 12,2 C 98 % 1002,5 hPa 0,3 l/m 24,5 km/h (4 Bft) NO 35 0 min 0 W/m 11,9 C 4,9 C 24,5 km/h (4 Bft)
29.09.2007 02:27 12,2 C 98 % 1002,5 hPa 0,0 l/m 28,6 km/h (5 Bft) N-NO 25 0 min 0 W/m 11,9 C 4,0 C 28,6 km/h (5 Bft)
29.09.2007 02:32 12,2 C 98 % 1001,5 hPa 0,0 l/m 31,1 km/h (5 Bft) N-NO 20 0 min 0 W/m 11,9 C 3,5 C 31,1 km/h (5 Bft)
29.09.2007 02:37 12,2 C 98 % 1001,5 hPa 0,3 l/m 27,7 km/h (5 Bft) N-NO 15 0 min 0 W/m 11,9 C 4,2 C 27,7 km/h (5 Bft)
29.09.2007 02:42 12,2 C 98 % 1001,5 hPa 0,0 l/m 27,6 km/h (5 Bft) N-NO 25 0 min 0 W/m 11,9 C 4,2 C 27,6 km/h (5 Bft)
29.09.2007 02:47 12,2 C 98 % 1001,5 hPa 0,3 l/m 33,5 km/h (5 Bft) N-NO 25 0 min 0 W/m 11,9 C 3,1 C 33,5 km/h (5 Bft)
29.09.2007 02:52 12,2 C 98 % 1001,5 hPa 0,0 l/m 30,0 km/h (5 Bft) N-NO 20 0 min 0 W/m 11,9 C 3,7 C 30,0 km/h (5 Bft)
29.09.2007 02:57 12,2 C 98 % 1001,5 hPa 0,0 l/m 31,6 km/h (5 Bft) NO 35 0 min 0 W/m 11,9 C 3,5 C 31,6 km/h (5 Bft)
29.09.2007 03:02 12,2 C 98 % 1001,5 hPa 0,0 l/m 21,9 km/h (4 Bft) N-NO 15 0 min 0 W/m 11,9 C 5,6 C 21,9 km/h (4 Bft)
29.09.2007 03:07 12,3 C 98 % 1001,5 hPa 0,3 l/m 23,5 km/h (4 Bft) N-NO 20 0 min 0 W/m 12,0 C 5,3 C 23,5 km/h (4 Bft)
29.09.2007 03:12 12,2 C 98 % 1001,5 hPa 0,0 l/m 28,1 km/h (5 Bft) N-NO 15 0 min 0 W/m 11,9 C 4,1 C 28,1 km/h (5 Bft)
29.09.2007 03:17 12,2 C 98 % 1001,5 hPa 0,3 l/m 29,8 km/h (5 Bft) N-NO 15 0 min 0 W/m 11,9 C 3,8 C 29,8 km/h (5 Bft)
29.09.2007 03:22 12,2 C 98 % 1001,5 hPa 0,0 l/m 27,5 km/h (5 Bft) N-NO 30 0 min 0 W/m 11,9 C 4,3 C 27,5 km/h (5 Bft)
29.09.2007 03:27 12,2 C 98 % 1001,5 hPa 0,3 l/m 22,8 km/h (4 Bft) N 10 0 min 0 W/m 11,9 C 5,4 C 22,8 km/h (4 Bft)
29.09.2007 03:32 12,2 C 98 % 1001,5 hPa 0,3 l/m 24,1 km/h (4 Bft) N-NO 15 0 min 0 W/m 11,9 C 5,0 C 24,1 km/h (4 Bft)
29.09.2007 03:37 12,2 C 98 % 1001,5 hPa 0,0 l/m 26,5 km/h (4 Bft) NO 40 0 min 0 W/m 11,9 C 4,5 C 26,5 km/h (4 Bft)
29.09.2007 03:42 12,2 C 98 % 1001,5 hPa 0,3 l/m 25,6 km/h (4 Bft) N-NO 20 0 min 0 W/m 11,9 C 4,7 C 25,6 km/h (4 Bft)
29.09.2007 03:47 12,2 C 98 % 1001,5 hPa 0,0 l/m 26,6 km/h (4 Bft) N 10 0 min 0 W/m 11,9 C 4,4 C 26,6 km/h (4 Bft)
29.09.2007 03:52 12,2 C 98 % 1001,5 hPa 0,3 l/m 25,6 km/h (4 Bft) N-NO 15 0 min 0 W/m 11,9 C 4,7 C 25,6 km/h (4 Bft)
29.09.2007 03:57 12,2 C 98 % 1001,5 hPa 0,0 l/m 24,8 km/h (4 Bft) N-NO 25 0 min 0 W/m 11,9 C 4,9 C 24,8 km/h (4 Bft)
29.09.2007 04:02 12,2 C 98 % 1001,5 hPa 0,3 l/m 23,5 km/h (4 Bft) NO 35 0 min 0 W/m 11,9 C 5,2 C 23,5 km/h (4 Bft)
29.09.2007 04:07 12,2 C 98 % 1001,5 hPa 0,3 l/m 29,5 km/h (5 Bft) N-NO 25 0 min 0 W/m 11,9 C 3,8 C 29,5 km/h (5 Bft)
29.09.2007 04:12 12,2 C 98 % 1000,5 hPa 0,3 l/m 22,3 km/h (4 Bft) N-NO 30 0 min 0 W/m 11,9 C 5,5 C 22,3 km/h (4 Bft)
29.09.2007 04:17 12,3 C 98 % 1000,5 hPa 0,3 l/m 22,3 km/h (4 Bft) N-NO 20 0 min 0 W/m 12,0 C 5,6 C 22,3 km/h (4 Bft)
29.09.2007 04:22 12,2 C 98 % 1000,5 hPa 0,3 l/m 24,4 km/h (4 Bft) NO 40 0 min 0 W/m 11,9 C 5,0 C 24,4 km/h (4 Bft)
29.09.2007 04:27 12,2 C 98 % 1000,5 hPa 0,3 l/m 23,0 km/h (4 Bft) N-NO 15 0 min 0 W/m 11,9 C 5,3 C 23,0 km/h (4 Bft)
29.09.2007 04:32 12,2 C 98 % 1000,5 hPa 0,3 l/m 24,1 km/h (4 Bft) NO 35 0 min 0 W/m 11,9 C 5,0 C 24,1 km/h (4 Bft)
29.09.2007 04:37 12,2 C 98 % 1000,5 hPa 0,3 l/m 32,2 km/h (5 Bft) N 10 0 min 0 W/m 11,9 C 3,3 C 32,2 km/h (5 Bft)
29.09.2007 04:42 12,2 C 98 % 1000,5 hPa 0,3 l/m 32,4 km/h (5 Bft) N-NO 25 0 min 0 W/m 11,9 C 3,3 C 32,4 km/h (5 Bft)
29.09.2007 04:47 12,2 C 98 % 1000,5 hPa 0,0 l/m 23,1 km/h (4 Bft) N 355 0 min 0 W/m 11,9 C 5,3 C 23,1 km/h (4 Bft)
29.09.2007 04:52 12,2 C 98 % 1000,5 hPa 0,0 l/m 28,0 km/h (5 Bft) N 5 0 min 0 W/m 11,9 C 4,1 C 28,0 km/h (5 Bft)
29.09.2007 04:57 12,2 C 98 % 1000,5 hPa 0,3 l/m 28,8 km/h (5 Bft) N-NO 25 0 min 0 W/m 11,9 C 4,0 C 28,8 km/h (5 Bft)
29.09.2007 05:02 12,2 C 98 % 1000,5 hPa 0,0 l/m 28,8 km/h (5 Bft) N-NO 25 0 min 0 W/m 11,9 C 4,0 C 28,8 km/h (5 Bft)
29.09.2007 05:07 12,2 C 99 % 1000,5 hPa 0,0 l/m 27,8 km/h (5 Bft) N-NO 20 0 min 0 W/m 12,0 C 4,2 C 27,8 km/h (5 Bft)
29.09.2007 05:12 12,2 C 99 % 1000,5 hPa 0,3 l/m 23,3 km/h (4 Bft) N 10 0 min 0 W/m 12,0 C 5,2 C 23,3 km/h (4 Bft)
29.09.2007 05:17 12,2 C 99 % 1000,5 hPa 0,0 l/m 21,0 km/h (4 Bft) N-NO 25 0 min 0 W/m 12,0 C 5,8 C 21,0 km/h (4 Bft)
29.09.2007 05:22 12,2 C 99 % 1000,5 hPa 0,0 l/m 27,1 km/h (5 Bft) NO 35 0 min 0 W/m 12,0 C 4,3 C 27,1 km/h (5 Bft)
29.09.2007 05:27 12,1 C 99 % 1000,5 hPa 0,0 l/m 28,7 km/h (5 Bft) N-NO 30 0 min 0 W/m 11,9 C 3,9 C 28,7 km/h (5 Bft)
29.09.2007 05:32 12,1 C 99 % 1000,5 hPa 0,0 l/m 22,5 km/h (4 Bft) N-NO 15 0 min 0 W/m 11,9 C 5,3 C 22,5 km/h (4 Bft)
29.09.2007 05:37 12,1 C 99 % 1000,5 hPa 0,0 l/m 23,7 km/h (4 Bft) N-NO 20 0 min 0 W/m 11,9 C 5,0 C 23,7 km/h (4 Bft)
29.09.2007 05:42 12,1 C 99 % 1000,5 hPa 0,0 l/m 18,3 km/h (3 Bft) N-NO 25 0 min 0 W/m 11,9 C 6,5 C 18,3 km/h (3 Bft)
29.09.2007 05:47 12,0 C 99 % 1000,5 hPa 0,0 l/m 19,3 km/h (3 Bft) N-NO 30 0 min 0 W/m 11,8 C 6,1 C 19,3 km/h (3 Bft)
29.09.2007 05:52 12,0 C 99 % 1000,5 hPa 0,0 l/m 23,4 km/h (4 Bft) N-NO 25 0 min 0 W/m 11,8 C 4,9 C 23,4 km/h (4 Bft)
29.09.2007 05:57 12,1 C 99 % 999,5 hPa 0,0 l/m 19,1 km/h (3 Bft) N-NO 20 0 min 0 W/m 11,9 C 6,3 C 19,1 km/h (3 Bft)
29.09.2007 06:02 12,1 C 99 % 1000,5 hPa 0,0 l/m 18,5 km/h (3 Bft) N-NO 30 0 min 0 W/m 11,9 C 6,5 C 18,5 km/h (3 Bft)
29.09.2007 06:07 12,2 C 99 % 999,5 hPa 0,0 l/m 17,8 km/h (3 Bft) N 5 0 min 0 W/m 12,0 C 6,8 C 17,8 km/h (3 Bft)
29.09.2007 06:12 12,2 C 99 % 999,5 hPa 0,0 l/m 14,2 km/h (3 Bft) N-NO 20 0 min 0 W/m 12,0 C 8,1 C 14,2 km/h (3 Bft)
29.09.2007 06:17 12,3 C 99 % 999,5 hPa 0,0 l/m 17,5 km/h (3 Bft) N-NO 25 0 min 0 W/m 12,1 C 7,0 C 17,5 km/h (3 Bft)
29.09.2007 06:22 12,2 C 99 % 999,5 hPa 0,0 l/m 13,8 km/h (3 Bft) N-NO 20 0 min 0 W/m 12,0 C 8,3 C 13,8 km/h (3 Bft)
29.09.2007 06:27 12,2 C 99 % 999,5 hPa 0,0 l/m 18,2 km/h (3 Bft) N-NO 15 0 min 0 W/m 12,0 C 6,7 C 18,2 km/h (3 Bft)
29.09.2007 06:32 12,3 C 99 % 999,5 hPa 0,0 l/m 18,6 km/h (3 Bft) NO 35 0 min 0 W/m 12,1 C 6,7 C 18,6 km/h (3 Bft)
29.09.2007 06:37 12,2 C 99 % 999,5 hPa 0,0 l/m 17,6 km/h (3 Bft) N 10 0 min 0 W/m 12,0 C 6,9 C 17,6 km/h (3 Bft)
29.09.2007 06:42 12,2 C 99 % 999,5 hPa 0,0 l/m 14,5 km/h (3 Bft) N 10 0 min 0 W/m 12,0 C 8,0 C 14,5 km/h (3 Bft)
29.09.2007 06:47 12,2 C 99 % 999,5 hPa 0,0 l/m 14,7 km/h (3 Bft) NO 35 0 min 0 W/m 12,0 C 7,9 C 14,7 km/h (3 Bft)
29.09.2007 06:52 12,3 C 99 % 999,5 hPa 0,0 l/m 14,7 km/h (3 Bft) NO 35 0 min 0 W/m 12,1 C 8,0 C 14,7 km/h (3 Bft)
29.09.2007 06:57 12,3 C 99 % 999,5 hPa 0,0 l/m 20,7 km/h (4 Bft) N-NO 15 0 min 0 W/m 12,1 C 6,1 C 20,7 km/h (4 Bft)
29.09.2007 07:02 12,3 C 99 % 999,5 hPa 0,0 l/m 14,5 km/h (3 Bft) N-NO 25 0 min 0 W/m 12,1 C 8,1 C 14,5 km/h (3 Bft)
29.09.2007 07:07 12,4 C 99 % 999,5 hPa 0,0 l/m 16,8 km/h (3 Bft) N-NO 15 0 min 0 W/m 12,2 C 7,4 C 16,8 km/h (3 Bft)
29.09.2007 07:12 12,4 C 99 % 999,5 hPa 0,0 l/m 19,1 km/h (3 Bft) N-NO 20 0 min 0 W/m 12,2 C 6,7 C 19,1 km/h (3 Bft)
29.09.2007 07:17 12,4 C 99 % 999,5 hPa 0,0 l/m 19,1 km/h (3 Bft) N-NO 20 0 min 0 W/m 12,2 C 6,7 C 19,1 km/h (3 Bft)
29.09.2007 07:22 12,4 C 99 % 999,5 hPa 0,0 l/m 19,5 km/h (3 Bft) N-NO 30 0 min 0 W/m 12,2 C 6,5 C 19,5 km/h (3 Bft)
29.09.2007 07:27 12,5 C 99 % 999,5 hPa 0,0 l/m 13,6 km/h (3 Bft) NO 35 0 min 0 W/m 12,3 C 8,7 C 13,6 km/h (3 Bft)
29.09.2007 07:32 12,5 C 99 % 999,5 hPa 0,0 l/m 14,5 km/h (3 Bft) N-NO 15 0 min 0 W/m 12,3 C 8,4 C 14,5 km/h (3 Bft)
29.09.2007 07:37 12,6 C 99 % 999,5 hPa 0,0 l/m 13,7 km/h (3 Bft) N-NO 25 0 min 0 W/m 12,4 C 8,8 C 13,7 km/h (3 Bft)
29.09.2007 07:42 12,6 C 99 % 999,5 hPa 0,0 l/m 12,4 km/h (2 Bft) N-NO 15 0 min 0 W/m 12,4 C 9,3 C 12,4 km/h (2 Bft)
29.09.2007 07:47 12,6 C 99 % 999,5 hPa 0,0 l/m 14,1 km/h (3 Bft) N-NO 25 0 min 0 W/m 12,4 C 8,6 C 14,1 km/h (3 Bft)
29.09.2007 07:52 12,6 C 99 % 999,5 hPa 0,0 l/m 16,2 km/h (3 Bft) N-NO 20 0 min 0 W/m 12,4 C 7,9 C 16,2 km/h (3 Bft)
29.09.2007 07:57 12,6 C 99 % 999,5 hPa 0,0 l/m 12,8 km/h (3 Bft) N-NO 25 0 min 0 W/m 12,4 C 9,2 C 12,8 km/h (3 Bft)
29.09.2007 08:02 12,6 C 99 % 999,5 hPa 0,0 l/m 16,3 km/h (3 Bft) N-NO 15 0 min 0 W/m 12,4 C 7,8 C 16,3 km/h (3 Bft)
29.09.2007 08:07 12,7 C 99 % 999,5 hPa 0,0 l/m 13,7 km/h (3 Bft) N-NO 20 0 min 0 W/m 12,5 C 8,9 C 13,7 km/h (3 Bft)
29.09.2007 08:12 12,9 C 99 % 999,5 hPa 0,0 l/m 14,0 km/h (3 Bft) N 360 0 min 0 W/m 12,7 C 9,0 C 14,0 km/h (3 Bft)
29.09.2007 08:17 13,0 C 99 % 999,5 hPa 0,0 l/m 12,4 km/h (2 Bft) N-NO 30 0 min 0 W/m 12,8 C 9,8 C 12,4 km/h (2 Bft)
29.09.2007 08:22 13,0 C 99 % 999,5 hPa 0,0 l/m 17,0 km/h (3 Bft) N 10 0 min 0 W/m 12,8 C 8,1 C 17,0 km/h (3 Bft)
29.09.2007 08:27 13,0 C 99 % 1000,5 hPa 0,0 l/m 11,5 km/h (2 Bft) N 10 0 min 0 W/m 12,8 C 10,2 C 11,5 km/h (2 Bft)
29.09.2007 08:32 13,0 C 99 % 999,5 hPa 0,0 l/m 13,0 km/h (3 Bft) N-NO 20 0 min 0 W/m 12,8 C 9,5 C 13,0 km/h (3 Bft)
29.09.2007 08:37 13,1 C 99 % 999,5 hPa 0,0 l/m 14,2 km/h (3 Bft) N-NO 25 0 min 0 W/m 12,9 C 9,2 C 14,2 km/h (3 Bft)
29.09.2007 08:42 13,3 C 99 % 1000,5 hPa 0,0 l/m 13,1 km/h (3 Bft) N 5 0 min 0 W/m 13,1 C 9,9 C 13,1 km/h (3 Bft)
29.09.2007 08:47 13,2 C 98 % 1000,5 hPa 0,0 l/m 11,3 km/h (2 Bft) N-NO 15 0 min 0 W/m 12,9 C 10,5 C 11,3 km/h (2 Bft)
29.09.2007 08:52 13,2 C 98 % 1000,5 hPa 0,0 l/m 10,6 km/h (2 Bft) N-NO 25 0 min 0 W/m 12,9 C 10,8 C 10,6 km/h (2 Bft)
29.09.2007 08:57 13,3 C 98 % 1000,5 hPa 0,0 l/m 9,5 km/h (2 Bft) N-NO 20 0 min 0 W/m 13,0 C 11,5 C 9,5 km/h (2 Bft)
29.09.2007 09:02 13,3 C 98 % 999,5 hPa 0,0 l/m 12,1 km/h (2 Bft) N-NO 20 0 min 0 W/m 13,0 C 10,3 C 12,1 km/h (2 Bft)
29.09.2007 09:07 13,3 C 98 % 999,5 hPa 0,0 l/m 13,5 km/h (3 Bft) N-NO 30 0 min 0 W/m 13,0 C 9,7 C 13,5 km/h (3 Bft)
29.09.2007 09:12 13,3 C 98 % 999,5 hPa 0,0 l/m 9,3 km/h (2 Bft) N-NO 25 0 min 0 W/m 13,0 C 11,6 C 9,3 km/h (2 Bft)
29.09.2007 09:17 13,6 C 98 % 999,5 hPa 0,0 l/m 11,5 km/h (2 Bft) N-NO 25 0 min 0 W/m 13,3 C 10,9 C 11,5 km/h (2 Bft)
29.09.2007 09:22 13,8 C 98 % 999,5 hPa 0,0 l/m 9,8 km/h (2 Bft) N-NO 25 0 min 0 W/m 13,5 C 11,9 C 9,8 km/h (2 Bft)
29.09.2007 09:27 13,9 C 98 % 999,5 hPa 0,0 l/m 13,8 km/h (3 Bft) N-NO 25 0 min 0 W/m 13,6 C 10,3 C 13,8 km/h (3 Bft)
29.09.2007 09:32 13,8 C 98 % 1000,5 hPa 0,0 l/m 8,9 km/h (2 Bft) N 10 0 min 0 W/m 13,5 C 12,3 C 8,9 km/h (2 Bft)
29.09.2007 09:37 13,6 C 98 % 1000,5 hPa 0,0 l/m 2,9 km/h (1 Bft) N 10 0 min 0 W/m 13,3 C 13,6 C 2,9 km/h (1 Bft)
29.09.2007 09:42 13,6 C 98 % 1000,5 hPa 0,0 l/m 8,2 km/h (2 Bft) N-NO 15 0 min 0 W/m 13,3 C 12,5 C 8,2 km/h (2 Bft)
29.09.2007 09:47 13,6 C 98 % 1000,5 hPa 0,0 l/m 8,7 km/h (2 Bft) N-NO 20 0 min 0 W/m 13,3 C 12,2 C 8,7 km/h (2 Bft)
29.09.2007 09:52 13,7 C 98 % 1000,5 hPa 0,0 l/m 8,0 km/h (2 Bft) N 10 0 min 0 W/m 13,4 C 12,7 C 8,0 km/h (2 Bft)
29.09.2007 09:57 13,7 C 98 % 1000,5 hPa 0,0 l/m 8,0 km/h (2 Bft) N 10 0 min 0 W/m 13,4 C 12,7 C 8,0 km/h (2 Bft)
29.09.2007 10:02 13,7 C 98 % 1000,5 hPa 0,0 l/m 9,9 km/h (2 Bft) N-NO 15 0 min 0 W/m 13,4 C 11,7 C 9,9 km/h (2 Bft)
29.09.2007 10:07 13,6 C 98 % 1000,5 hPa 0,0 l/m 11,5 km/h (2 Bft) N-NO 15 0 min 0 W/m 13,3 C 10,9 C 11,5 km/h (2 Bft)
29.09.2007 10:12 13,6 C 98 % 1000,5 hPa 0,0 l/m 11,6 km/h (2 Bft) NO 35 0 min 0 W/m 13,3 C 10,8 C 11,6 km/h (2 Bft)
29.09.2007 10:17 13,6 C 98 % 1000,5 hPa 0,0 l/m 12,3 km/h (2 Bft) NO 35 0 min 0 W/m 13,3 C 10,5 C 12,3 km/h (2 Bft)
29.09.2007 10:22 13,7 C 98 % 1000,5 hPa 0,0 l/m 10,6 km/h (2 Bft) NO 35 0 min 0 W/m 13,4 C 11,4 C 10,6 km/h (2 Bft)
29.09.2007 10:27 13,8 C 98 % 1000,5 hPa 0,0 l/m 8,5 km/h (2 Bft) N 10 0 min 0 W/m 13,5 C 12,6 C 8,5 km/h (2 Bft)
29.09.2007 10:32 13,9 C 98 % 1000,5 hPa 0,0 l/m 15,0 km/h (3 Bft) N-NO 15 0 min 0 W/m 13,6 C 9,9 C 15,0 km/h (3 Bft)
29.09.2007 10:36 14,0 C 98 % 1000,5 hPa 0,9 l/m 11,9 km/h (2 Bft) N-NO 15 0 min 0 W/m 13,7 C 11,2 C 11,9 km/h (2 Bft)
29.09.2007 10:42 14,1 C 98 % 1000,5 hPa 0,0 l/m 2,4 km/h (1 Bft) N 10 0 min 0 W/m 13,8 C 14,1 C 2,4 km/h (1 Bft)
29.09.2007 10:47 14,2 C 99 % 1000,5 hPa 0,0 l/m 10,3 km/h (2 Bft) N-NO 20 0 min 0 W/m 14,0 C 12,1 C 10,3 km/h (2 Bft)
29.09.2007 10:52 14,3 C 99 % 1000,5 hPa 0,0 l/m 5,4 km/h (2 Bft) N-NO 15 0 min 0 W/m 14,1 C 14,3 C 5,4 km/h (2 Bft)
29.09.2007 10:57 14,7 C 98 % 1000,5 hPa 0,0 l/m 4,4 km/h (1 Bft) N 360 0 min 0 W/m 14,4 C 14,7 C 4,4 km/h (1 Bft)
29.09.2007 11:02 15,0 C 98 % 1000,5 hPa 0,0 l/m 11,2 km/h (2 Bft) N-NO 30 0 min 0 W/m 14,7 C 12,6 C 11,2 km/h (2 Bft)
29.09.2007 11:07 15,3 C 98 % 1000,5 hPa 0,0 l/m 10,2 km/h (2 Bft) N-NO 15 0 min 0 W/m 15,0 C 13,4 C 10,2 km/h (2 Bft)
29.09.2007 11:12 15,4 C 98 % 1000,5 hPa 0,0 l/m 7,6 km/h (2 Bft) N 360 0 min 0 W/m 15,1 C 14,7 C 7,6 km/h (2 Bft)
29.09.2007 11:17 15,6 C 98 % 1000,5 hPa 0,0 l/m 6,5 km/h (2 Bft) N-NO 15 0 min 0 W/m 15,3 C 15,6 C 6,5 km/h (2 Bft)
29.09.2007 11:22 15,8 C 98 % 1000,5 hPa 0,0 l/m 6,5 km/h (2 Bft) N-NO 15 0 min 0 W/m 15,5 C 15,8 C 6,5 km/h (2 Bft)
29.09.2007 11:27 16,3 C 97 % 1000,5 hPa 0,0 l/m 10,6 km/h (2 Bft) N 10 0 min 0 W/m 15,8 C 14,3 C 10,6 km/h (2 Bft)
29.09.2007 11:32 16,5 C 97 % 1000,5 hPa 0,0 l/m 10,9 km/h (2 Bft) N 360 0 min 0 W/m 16,0 C 14,4 C 10,9 km/h (2 Bft)
29.09.2007 11:37 16,6 C 97 % 1000,5 hPa 0,0 l/m 9,9 km/h (2 Bft) N-NO 20 0 min 0 W/m 16,1 C 14,9 C 9,9 km/h (2 Bft)
29.09.2007 11:42 16,4 C 97 % 1000,5 hPa 0,0 l/m 11,7 km/h (2 Bft) N 360 0 min 0 W/m 15,9 C 14,0 C 11,7 km/h (2 Bft)
29.09.2007 11:47 16,2 C 96 % 1000,5 hPa 0,0 l/m 8,9 km/h (2 Bft) N 10 0 min 0 W/m 15,6 C 14,9 C 8,9 km/h (2 Bft)
29.09.2007 11:52 16,1 C 96 % 1000,5 hPa 0,0 l/m 0,7 km/h (0 Bft) N 10 0 min 0 W/m 15,5 C 16,1 C 0,7 km/h (0 Bft)
29.09.2007 11:57 16,0 C 96 % 1000,5 hPa 0,0 l/m 8,2 km/h (2 Bft) N 360 0 min 0 W/m 15,4 C 15,1 C 8,2 km/h (2 Bft)
29.09.2007 12:02 16,0 C 96 % 1000,5 hPa 0,0 l/m 2,0 km/h (1 Bft) N 5 0 min 0 W/m 15,4 C 16,0 C 2,0 km/h (1 Bft)
29.09.2007 12:07 16,1 C 96 % 1000,5 hPa 0,0 l/m 7,9 km/h (2 Bft) N 10 0 min 0 W/m 15,5 C 15,3 C 7,9 km/h (2 Bft)
29.09.2007 12:12 16,1 C 95 % 1000,5 hPa 0,0 l/m 6,6 km/h (2 Bft) N-NO 15 0 min 0 W/m 15,3 C 16,0 C 6,6 km/h (2 Bft)
29.09.2007 12:17 15,9 C 94 % 1000,5 hPa 0,0 l/m 7,1 km/h (2 Bft) N 10 0 min 0 W/m 14,9 C 15,5 C 7,1 km/h (2 Bft)
29.09.2007 12:22 15,7 C 94 % 1000,5 hPa 0,0 l/m 10,6 km/h (2 Bft) N-NO 30 0 min 0 W/m 14,7 C 13,6 C 10,6 km/h (2 Bft)
29.09.2007 12:27 15,7 C 94 % 1000,5 hPa 0,0 l/m 7,5 km/h (2 Bft) N-NO 20 0 min 0 W/m 14,7 C 15,1 C 7,5 km/h (2 Bft)
29.09.2007 12:32 15,7 C 94 % 1000,5 hPa 0,0 l/m 6,1 km/h (2 Bft) N-NO 25 0 min 0 W/m 14,7 C 15,7 C 6,1 km/h (2 Bft)
29.09.2007 12:37 15,9 C 94 % 1000,5 hPa 0,0 l/m 4,2 km/h (1 Bft) N-NO 25 0 min 0 W/m 14,9 C 15,9 C 4,2 km/h (1 Bft)
29.09.2007 12:42 16,0 C 94 % 1000,5 hPa 0,0 l/m 5,4 km/h (2 Bft) N 10 0 min 0 W/m 15,0 C 16,0 C 5,4 km/h (2 Bft)
29.09.2007 12:47 16,2 C 94 % 1000,5 hPa 0,0 l/m 12,6 km/h (3 Bft) N-NO 15 0 min 0 W/m 15,2 C 13,4 C 12,6 km/h (3 Bft)
29.09.2007 12:52 16,4 C 93 % 1000,5 hPa 0,0 l/m 7,8 km/h (2 Bft) N-NO 20 0 min 0 W/m 15,3 C 15,7 C 7,8 km/h (2 Bft)
29.09.2007 12:57 16,4 C 92 % 1000,5 hPa 0,0 l/m 8,7 km/h (2 Bft) N 360 0 min 0 W/m 15,1 C 15,2 C 8,7 km/h (2 Bft)
29.09.2007 13:02 16,5 C 92 % 1000,5 hPa 0,0 l/m 7,4 km/h (2 Bft) N 360 0 min 0 W/m 15,2 C 16,0 C 7,4 km/h (2 Bft)
29.09.2007 13:07 17,0 C 92 % 1000,5 hPa 0,0 l/m 5,5 km/h (2 Bft) N-NO 15 0 min 0 W/m 15,7 C 17,0 C 5,5 km/h (2 Bft)
29.09.2007 13:12 17,2 C 90 % 1000,5 hPa 0,0 l/m 7,4 km/h (2 Bft) N 355 0 min 0 W/m 15,5 C 16,7 C 7,4 km/h (2 Bft)
29.09.2007 13:17 17,2 C 88 % 1000,5 hPa 0,0 l/m 10,3 km/h (2 Bft) N 355 0 min 0 W/m 15,2 C 15,4 C 10,3 km/h (2 Bft)
29.09.2007 13:22 17,2 C 88 % 1000,5 hPa 0,0 l/m 6,1 km/h (2 Bft) N-NW 340 0 min 0 W/m 15,2 C 17,2 C 6,1 km/h (2 Bft)
29.09.2007 13:27 17,6 C 88 % 1000,5 hPa 0,0 l/m 6,9 km/h (2 Bft) N 350 0 min 0 W/m 15,6 C 17,4 C 6,9 km/h (2 Bft)
29.09.2007 13:32 17,8 C 88 % 1000,5 hPa 0,0 l/m 6,8 km/h (2 Bft) N 360 0 min 0 W/m 15,8 C 17,6 C 6,8 km/h (2 Bft)
29.09.2007 13:37 18,0 C 86 % 1000,5 hPa 0,0 l/m 10,8 km/h (2 Bft) N 355 0 min 0 W/m 15,6 C 16,1 C 10,8 km/h (2 Bft)
29.09.2007 13:42 17,9 C 85 % 1000,5 hPa 0,0 l/m 9,0 km/h (2 Bft) N 350 0 min 0 W/m 15,3 C 16,7 C 9,0 km/h (2 Bft)
29.09.2007 13:47 17,9 C 86 % 1000,5 hPa 0,0 l/m 10,0 km/h (2 Bft) NW 325 0 min 0 W/m 15,5 C 16,3 C 10,0 km/h (2 Bft)
29.09.2007 13:52 18,2 C 84 % 1000,5 hPa 0,0 l/m 11,2 km/h (2 Bft) N-NW 330 0 min 0 W/m 15,4 C 16,2 C 11,2 km/h (2 Bft)
29.09.2007 13:57 18,5 C 84 % 1000,5 hPa 0,0 l/m 10,0 km/h (2 Bft) NW 315 0 min 0 W/m 15,7 C 17,0 C 10,0 km/h (2 Bft)
29.09.2007 14:02 18,5 C 81 % 1000,5 hPa 0,0 l/m 13,3 km/h (3 Bft) NW 315 0 min 0 W/m 15,2 C 15,9 C 13,3 km/h (3 Bft)
29.09.2007 14:07 18,4 C 81 % 1000,5 hPa 0,0 l/m 11,1 km/h (2 Bft) NW 325 0 min 0 W/m 15,1 C 16,5 C 11,1 km/h (2 Bft)
29.09.2007 14:12 18,4 C 81 % 1000,5 hPa 0,0 l/m 10,9 km/h (2 Bft) NW 315 0 min 0 W/m 15,1 C 16,6 C 10,9 km/h (2 Bft)
29.09.2007 14:17 18,3 C 80 % 1000,5 hPa 0,0 l/m 13,8 km/h (3 Bft) N-NW 340 0 min 0 W/m 14,8 C 15,5 C 13,8 km/h (3 Bft)
29.09.2007 14:22 18,0 C 82 % 1000,5 hPa 0,0 l/m 12,0 km/h (2 Bft) N-NW 340 0 min 0 W/m 14,9 C 15,7 C 12,0 km/h (2 Bft)
29.09.2007 14:27 18,0 C 82 % 1000,5 hPa 0,0 l/m 12,3 km/h (2 Bft) N-NW 345 0 min 0 W/m 14,9 C 15,6 C 12,3 km/h (2 Bft)
29.09.2007 14:32 17,8 C 82 % 1000,5 hPa 0,0 l/m 11,5 km/h (2 Bft) N 350 0 min 0 W/m 14,7 C 15,7 C 11,5 km/h (2 Bft)
29.09.2007 14:37 17,8 C 82 % 1000,5 hPa 0,0 l/m 7,9 km/h (2 Bft) NW 320 0 min 0 W/m 14,7 C 17,1 C 7,9 km/h (2 Bft)
29.09.2007 14:42 17,8 C 82 % 1000,5 hPa 0,0 l/m 10,1 km/h (2 Bft) N-NW 330 0 min 0 W/m 14,7 C 16,2 C 10,1 km/h (2 Bft)
29.09.2007 14:47 17,7 C 82 % 1000,5 hPa 0,0 l/m 8,9 km/h (2 Bft) N-NW 335 0 min 0 W/m 14,6 C 16,5 C 8,9 km/h (2 Bft)
29.09.2007 14:52 17,6 C 82 % 1000,5 hPa 0,0 l/m 11,5 km/h (2 Bft) N 10 0 min 0 W/m 14,5 C 15,4 C 11,5 km/h (2 Bft)
29.09.2007 14:57 17,0 C 82 % 1000,5 hPa 0,0 l/m 11,3 km/h (2 Bft) N 10 0 min 0 W/m 13,9 C 14,8 C 11,3 km/h (2 Bft)
29.09.2007 15:02 16,8 C 84 % 1001,5 hPa 0,0 l/m 7,3 km/h (2 Bft) NW 325 0 min 0 W/m 14,1 C 16,3 C 7,3 km/h (2 Bft)
29.09.2007 15:07 16,7 C 84 % 1001,5 hPa 0,0 l/m 6,9 km/h (2 Bft) NW 315 0 min 0 W/m 14,0 C 16,4 C 6,9 km/h (2 Bft)
29.09.2007 15:12 16,4 C 84 % 1001,5 hPa 0,0 l/m 8,8 km/h (2 Bft) NW 320 0 min 0 W/m 13,7 C 15,2 C 8,8 km/h (2 Bft)
29.09.2007 15:17 16,2 C 84 % 1001,5 hPa 0,0 l/m 6,6 km/h (2 Bft) N-NW 330 0 min 0 W/m 13,5 C 16,1 C 6,6 km/h (2 Bft)
29.09.2007 15:22 15,9 C 83 % 1001,5 hPa 0,0 l/m 12,8 km/h (3 Bft) N 360 0 min 0 W/m 13,0 C 13,0 C 12,8 km/h (3 Bft)
29.09.2007 15:27 15,7 C 82 % 1001,5 hPa 0,0 l/m 12,6 km/h (3 Bft) N 355 0 min 0 W/m 12,6 C 12,9 C 12,6 km/h (3 Bft)
29.09.2007 15:32 15,4 C 83 % 1001,5 hPa 0,0 l/m 15,0 km/h (3 Bft) N-NO 15 0 min 0 W/m 12,5 C 11,7 C 15,0 km/h (3 Bft)
29.09.2007 15:37 15,4 C 84 % 1001,5 hPa 0,0 l/m 8,9 km/h (2 Bft) N 5 0 min 0 W/m 12,7 C 14,1 C 8,9 km/h (2 Bft)
29.09.2007 15:42 15,4 C 84 % 1001,5 hPa 0,0 l/m 9,0 km/h (2 Bft) N 360 0 min 0 W/m 12,7 C 14,0 C 9,0 km/h (2 Bft)
29.09.2007 15:47 15,4 C 84 % 1001,5 hPa 0,0 l/m 5,0 km/h (1 Bft) N-NO 15 0 min 0 W/m 12,7 C 15,4 C 5,0 km/h (1 Bft)
29.09.2007 15:52 15,3 C 84 % 1001,5 hPa 0,0 l/m 11,4 km/h (2 Bft) N-NO 15 0 min 0 W/m 12,6 C 12,9 C 11,4 km/h (2 Bft)
29.09.2007 15:57 15,2 C 84 % 1001,5 hPa 0,0 l/m 8,7 km/h (2 Bft) NO 35 0 min 0 W/m 12,5 C 14,0 C 8,7 km/h (2 Bft)
29.09.2007 16:02 15,0 C 84 % 1001,5 hPa 0,0 l/m 9,5 km/h (2 Bft) N-NO 20 0 min 0 W/m 12,3 C 13,3 C 9,5 km/h (2 Bft)
29.09.2007 16:07 15,0 C 84 % 1001,5 hPa 0,0 l/m 8,3 km/h (2 Bft) N 10 0 min 0 W/m 12,3 C 13,9 C 8,3 km/h (2 Bft)
29.09.2007 16:12 15,0 C 84 % 1001,5 hPa 0,0 l/m 9,7 km/h (2 Bft) N-NO 25 0 min 0 W/m 12,3 C 13,3 C 9,7 km/h (2 Bft)
29.09.2007 16:17 15,4 C 84 % 1001,5 hPa 0,0 l/m 10,3 km/h (2 Bft) N-NO 15 0 min 0 W/m 12,7 C 13,4 C 10,3 km/h (2 Bft)
29.09.2007 16:22 15,6 C 85 % 1001,5 hPa 0,0 l/m 11,4 km/h (2 Bft) N 5 0 min 0 W/m 13,1 C 13,2 C 11,4 km/h (2 Bft)
29.09.2007 16:27 15,9 C 83 % 1001,5 hPa 0,0 l/m 8,0 km/h (2 Bft) N-NO 15 0 min 0 W/m 13,0 C 15,0 C 8,0 km/h (2 Bft)
29.09.2007 16:32 15,9 C 83 % 1001,5 hPa 0,0 l/m 11,0 km/h (2 Bft) N 350 0 min 0 W/m 13,0 C 13,7 C 11,0 km/h (2 Bft)
29.09.2007 16:37 15,7 C 82 % 1001,5 hPa 0,0 l/m 9,0 km/h (2 Bft) N 350 0 min 0 W/m 12,6 C 14,3 C 9,0 km/h (2 Bft)
29.09.2007 16:42 15,6 C 83 % 1001,5 hPa 0,0 l/m 6,7 km/h (2 Bft) N 360 0 min 0 W/m 12,7 C 15,4 C 6,7 km/h (2 Bft)
29.09.2007 16:47 15,6 C 83 % 1001,5 hPa 0,0 l/m 10,6 km/h (2 Bft) N 360 0 min 0 W/m 12,7 C 13,5 C 10,6 km/h (2 Bft)
29.09.2007 16:52 15,5 C 84 % 1001,5 hPa 0,0 l/m 7,0 km/h (2 Bft) N 5 0 min 0 W/m 12,8 C 15,2 C 7,0 km/h (2 Bft)
29.09.2007 16:57 15,3 C 84 % 1001,5 hPa 0,0 l/m 8,7 km/h (2 Bft) N 350 0 min 0 W/m 12,6 C 14,1 C 8,7 km/h (2 Bft)
29.09.2007 17:02 15,3 C 85 % 1001,5 hPa 0,0 l/m 8,7 km/h (2 Bft) N 350 0 min 0 W/m 12,8 C 14,1 C 8,7 km/h (2 Bft)
29.09.2007 17:07 15,2 C 85 % 1001,5 hPa 0,0 l/m 9,6 km/h (2 Bft) N 360 0 min 0 W/m 12,7 C 13,5 C 9,6 km/h (2 Bft)
29.09.2007 17:12 15,2 C 85 % 1001,5 hPa 0,0 l/m 11,3 km/h (2 Bft) N 10 0 min 0 W/m 12,7 C 12,8 C 11,3 km/h (2 Bft)
29.09.2007 17:17 15,3 C 85 % 1001,5 hPa 0,0 l/m 9,7 km/h (2 Bft) N 360 0 min 0 W/m 12,8 C 13,6 C 9,7 km/h (2 Bft)
29.09.2007 17:22 15,5 C 85 % 1001,5 hPa 0,0 l/m 8,9 km/h (2 Bft) N 360 0 min 0 W/m 13,0 C 14,2 C 8,9 km/h (2 Bft)
29.09.2007 17:27 15,5 C 85 % 1001,5 hPa 0,0 l/m 9,8 km/h (2 Bft) N 10 0 min 0 W/m 13,0 C 13,8 C 9,8 km/h (2 Bft)
29.09.2007 17:32 15,6 C 85 % 1001,5 hPa 0,0 l/m 9,7 km/h (2 Bft) N-NO 15 0 min 0 W/m 13,1 C 13,9 C 9,7 km/h (2 Bft)
29.09.2007 17:37 15,6 C 85 % 1002,5 hPa 0,0 l/m 9,4 km/h (2 Bft) N-NO 15 0 min 0 W/m 13,1 C 14,1 C 9,4 km/h (2 Bft)
29.09.2007 17:42 15,6 C 85 % 1002,5 hPa 0,0 l/m 6,3 km/h (2 Bft) N 350 0 min 0 W/m 13,1 C 15,6 C 6,3 km/h (2 Bft)
29.09.2007 17:47 15,5 C 86 % 1002,5 hPa 0,0 l/m 7,9 km/h (2 Bft) N 5 0 min 0 W/m 13,2 C 14,7 C 7,9 km/h (2 Bft)
29.09.2007 17:52 15,4 C 86 % 1001,5 hPa 0,0 l/m 7,8 km/h (2 Bft) N 5 0 min 0 W/m 13,1 C 14,6 C 7,8 km/h (2 Bft)
29.09.2007 17:57 15,2 C 86 % 1002,5 hPa 0,0 l/m 5,0 km/h (1 Bft) N-NW 335 0 min 0 W/m 12,9 C 15,2 C 5,0 km/h (1 Bft)
29.09.2007 18:02 15,2 C 87 % 1002,5 hPa 0,0 l/m 7,4 km/h (2 Bft) NW 320 0 min 0 W/m 13,0 C 14,6 C 7,4 km/h (2 Bft)
29.09.2007 18:07 15,1 C 87 % 1002,5 hPa 0,0 l/m 6,1 km/h (2 Bft) NW 315 0 min 0 W/m 13,0 C 15,1 C 6,1 km/h (2 Bft)
29.09.2007 18:12 15,0 C 87 % 1002,5 hPa 0,0 l/m 7,2 km/h (2 Bft) NW 325 0 min 0 W/m 12,9 C 14,5 C 7,2 km/h (2 Bft)
29.09.2007 18:17 15,0 C 87 % 1002,5 hPa 0,0 l/m 5,7 km/h (2 Bft) NW 320 0 min 0 W/m 12,9 C 15,0 C 5,7 km/h (2 Bft)
29.09.2007 18:22 15,0 C 88 % 1002,5 hPa 0,0 l/m 0,9 km/h (0 Bft) NW 310 0 min 0 W/m 13,0 C 15,0 C 0,9 km/h (0 Bft)
29.09.2007 18:27 15,0 C 88 % 1002,5 hPa 0,0 l/m 5,2 km/h (1 Bft) NW 315 0 min 0 W/m 13,0 C 15,0 C 5,2 km/h (1 Bft)
29.09.2007 18:32 14,7 C 89 % 1002,5 hPa 0,0 l/m 6,5 km/h (2 Bft) NW 320 0 min 0 W/m 12,9 C 14,7 C 6,5 km/h (2 Bft)
29.09.2007 18:37 14,6 C 89 % 1002,5 hPa 0,0 l/m 5,2 km/h (1 Bft) NW 315 0 min 0 W/m 12,8 C 14,6 C 5,2 km/h (1 Bft)
29.09.2007 18:42 14,5 C 89 % 1002,5 hPa 0,0 l/m 9,0 km/h (2 Bft) NW 310 0 min 0 W/m 12,7 C 13,1 C 9,0 km/h (2 Bft)
29.09.2007 18:47 14,4 C 89 % 1002,5 hPa 0,0 l/m 6,8 km/h (2 Bft) W-NW 300 0 min 0 W/m 12,6 C 14,2 C 6,8 km/h (2 Bft)
29.09.2007 18:52 14,4 C 89 % 1002,5 hPa 0,0 l/m 3,7 km/h (1 Bft) NW 310 0 min 0 W/m 12,6 C 14,4 C 3,7 km/h (1 Bft)
29.09.2007 18:57 14,4 C 89 % 1002,5 hPa 0,0 l/m 0,0 km/h (0 Bft) NW 310 0 min 0 W/m 12,6 C 14,4 C 0,0 km/h (0 Bft)
29.09.2007 19:02 14,4 C 89 % 1002,5 hPa 0,0 l/m 2,5 km/h (1 Bft) NW 310 0 min 0 W/m 12,6 C 14,4 C 2,5 km/h (1 Bft)
29.09.2007 19:07 14,3 C 90 % 1002,5 hPa 0,0 l/m 2,8 km/h (1 Bft) NW 310 0 min 0 W/m 12,7 C 14,3 C 2,8 km/h (1 Bft)
29.09.2007 19:12 14,3 C 90 % 1002,5 hPa 0,0 l/m 3,8 km/h (1 Bft) NW 310 0 min 0 W/m 12,7 C 14,3 C 3,8 km/h (1 Bft)
29.09.2007 19:17 14,3 C 90 % 1002,5 hPa 0,0 l/m 0,1 km/h (0 Bft) NW 310 0 min 0 W/m 12,7 C 14,3 C 0,1 km/h (0 Bft)
29.09.2007 19:22 14,2 C 90 % 1002,5 hPa 0,0 l/m 4,0 km/h (1 Bft) W-NW 295 0 min 0 W/m 12,6 C 14,2 C 4,0 km/h (1 Bft)
29.09.2007 19:27 14,0 C 91 % 1002,5 hPa 0,0 l/m 4,6 km/h (1 Bft) W 265 0 min 0 W/m 12,6 C 14,0 C 4,6 km/h (1 Bft)
29.09.2007 19:32 14,0 C 91 % 1002,5 hPa 0,0 l/m 4,0 km/h (1 Bft) W 260 0 min 0 W/m 12,6 C 14,0 C 4,0 km/h (1 Bft)
29.09.2007 19:37 14,0 C 91 % 1003,5 hPa 0,0 l/m 0,0 km/h (0 Bft) W 260 0 min 0 W/m 12,6 C 14,0 C 0,0 km/h (0 Bft)
29.09.2007 19:42 14,0 C 92 % 1003,5 hPa 0,0 l/m 0,0 km/h (0 Bft) W 260 0 min 0 W/m 12,7 C 14,0 C 0,0 km/h (0 Bft)
29.09.2007 19:47 13,9 C 92 % 1003,5 hPa 0,0 l/m 0,6 km/h (0 Bft) W 260 0 min 0 W/m 12,6 C 13,9 C 0,6 km/h (0 Bft)
29.09.2007 19:52 13,9 C 92 % 1003,5 hPa 0,0 l/m 0,0 km/h (0 Bft) W 260 0 min 0 W/m 12,6 C 13,9 C 0,0 km/h (0 Bft)
29.09.2007 19:57 13,8 C 92 % 1003,5 hPa 0,0 l/m 0,0 km/h (0 Bft) W 260 0 min 0 W/m 12,5 C 13,8 C 0,0 km/h (0 Bft)
29.09.2007 20:02 13,8 C 92 % 1003,5 hPa 0,0 l/m 1,8 km/h (1 Bft) W 260 0 min 0 W/m 12,5 C 13,8 C 1,8 km/h (1 Bft)
29.09.2007 20:07 13,8 C 92 % 1003,5 hPa 0,0 l/m 3,5 km/h (1 Bft) W 260 0 min 0 W/m 12,5 C 13,8 C 3,5 km/h (1 Bft)
29.09.2007 20:12 13,7 C 92 % 1003,5 hPa 0,0 l/m 1,2 km/h (1 Bft) W 260 0 min 0 W/m 12,4 C 13,7 C 1,2 km/h (1 Bft)
29.09.2007 20:17 13,6 C 92 % 1003,5 hPa 0,0 l/m 0,0 km/h (0 Bft) W 260 0 min 0 W/m 12,3 C 13,6 C 0,0 km/h (0 Bft)
29.09.2007 20:22 13,6 C 92 % 1003,5 hPa 0,0 l/m 3,5 km/h (1 Bft) W 260 0 min 0 W/m 12,3 C 13,6 C 3,5 km/h (1 Bft)
29.09.2007 20:27 13,5 C 93 % 1003,5 hPa 0,0 l/m 2,6 km/h (1 Bft) W 260 0 min 0 W/m 12,4 C 13,5 C 2,6 km/h (1 Bft)
29.09.2007 20:32 13,5 C 93 % 1003,5 hPa 0,0 l/m 4,5 km/h (1 Bft) W 260 0 min 0 W/m 12,4 C 13,5 C 4,5 km/h (1 Bft)
29.09.2007 20:37 13,5 C 93 % 1003,5 hPa 0,0 l/m 5,2 km/h (1 Bft) W-SW 255 0 min 0 W/m 12,4 C 13,5 C 5,2 km/h (1 Bft)
29.09.2007 20:42 13,5 C 94 % 1003,5 hPa 0,0 l/m 4,0 km/h (1 Bft) W 260 0 min 0 W/m 12,6 C 13,5 C 4,0 km/h (1 Bft)
29.09.2007 20:47 13,5 C 94 % 1003,5 hPa 0,0 l/m 4,6 km/h (1 Bft) W 260 0 min 0 W/m 12,6 C 13,5 C 4,6 km/h (1 Bft)
29.09.2007 20:52 13,5 C 94 % 1003,5 hPa 0,3 l/m 5,4 km/h (2 Bft) W-SW 255 0 min 0 W/m 12,6 C 13,5 C 5,4 km/h (2 Bft)
29.09.2007 20:57 13,6 C 95 % 1003,5 hPa 0,0 l/m 5,0 km/h (1 Bft) W-SW 255 0 min 0 W/m 12,8 C 13,6 C 5,0 km/h (1 Bft)
29.09.2007 21:02 13,6 C 95 % 1003,5 hPa 0,0 l/m 5,6 km/h (2 Bft) W-SW 250 0 min 0 W/m 12,8 C 13,6 C 5,6 km/h (2 Bft)
29.09.2007 21:07 13,6 C 95 % 1003,5 hPa 0,0 l/m 6,9 km/h (2 Bft) W-SW 255 0 min 0 W/m 12,8 C 13,3 C 6,9 km/h (2 Bft)
29.09.2007 21:12 13,6 C 95 % 1003,5 hPa 0,0 l/m 5,1 km/h (1 Bft) W-SW 255 0 min 0 W/m 12,8 C 13,6 C 5,1 km/h (1 Bft)
29.09.2007 21:17 13,6 C 95 % 1003,5 hPa 0,0 l/m 5,2 km/h (1 Bft) W-SW 250 0 min 0 W/m 12,8 C 13,6 C 5,2 km/h (1 Bft)
29.09.2007 21:22 13,5 C 95 % 1003,5 hPa 0,0 l/m 6,0 km/h (2 Bft) W-SW 250 0 min 0 W/m 12,7 C 13,5 C 6,0 km/h (2 Bft)
29.09.2007 21:27 13,5 C 96 % 1003,5 hPa 0,0 l/m 6,3 km/h (2 Bft) W-SW 250 0 min 0 W/m 12,9 C 13,5 C 6,3 km/h (2 Bft)
29.09.2007 21:32 13,5 C 96 % 1003,5 hPa 0,0 l/m 6,3 km/h (2 Bft) W-SW 250 0 min 0 W/m 12,9 C 13,5 C 6,3 km/h (2 Bft)
29.09.2007 21:37 13,6 C 97 % 1003,5 hPa 0,0 l/m 11,7 km/h (2 Bft) W 260 0 min 0 W/m 13,1 C 10,8 C 11,7 km/h (2 Bft)
29.09.2007 21:42 13,6 C 97 % 1004,5 hPa 0,0 l/m 10,5 km/h (2 Bft) W 260 0 min 0 W/m 13,1 C 11,3 C 10,5 km/h (2 Bft)
29.09.2007 21:47 13,7 C 97 % 1004,5 hPa 0,0 l/m 15,8 km/h (3 Bft) W 265 0 min 0 W/m 13,2 C 9,3 C 15,8 km/h (3 Bft)
29.09.2007 21:52 13,6 C 97 % 1004,5 hPa 0,0 l/m 16,0 km/h (3 Bft) W 260 0 min 0 W/m 13,1 C 9,2 C 16,0 km/h (3 Bft)
29.09.2007 21:57 13,6 C 97 % 1004,5 hPa 0,0 l/m 13,8 km/h (3 Bft) W 260 0 min 0 W/m 13,1 C 9,9 C 13,8 km/h (3 Bft)
29.09.2007 22:02 13,6 C 97 % 1004,5 hPa 0,3 l/m 12,4 km/h (2 Bft) W 260 0 min 0 W/m 13,1 C 10,5 C 12,4 km/h (2 Bft)
29.09.2007 22:07 13,6 C 97 % 1004,5 hPa 0,0 l/m 15,3 km/h (3 Bft) W 260 0 min 0 W/m 13,1 C 9,4 C 15,3 km/h (3 Bft)
29.09.2007 22:12 13,7 C 97 % 1004,5 hPa 0,0 l/m 15,5 km/h (3 Bft) W 270 0 min 0 W/m 13,2 C 9,4 C 15,5 km/h (3 Bft)
29.09.2007 22:17 13,7 C 97 % 1004,5 hPa 0,0 l/m 12,2 km/h (2 Bft) W 260 0 min 0 W/m 13,2 C 10,7 C 12,2 km/h (2 Bft)
29.09.2007 22:22 13,7 C 97 % 1004,5 hPa 0,0 l/m 14,7 km/h (3 Bft) W 260 0 min 0 W/m 13,2 C 9,7 C 14,7 km/h (3 Bft)
29.09.2007 22:27 13,7 C 97 % 1004,5 hPa 0,3 l/m 14,9 km/h (3 Bft) W 260 0 min 0 W/m 13,2 C 9,7 C 14,9 km/h (3 Bft)
29.09.2007 22:32 13,7 C 97 % 1004,5 hPa 0,0 l/m 13,0 km/h (3 Bft) W-SW 255 0 min 0 W/m 13,2 C 10,4 C 13,0 km/h (3 Bft)
29.09.2007 22:37 13,8 C 97 % 1004,5 hPa 0,0 l/m 15,4 km/h (3 Bft) W-SW 255 0 min 0 W/m 13,3 C 9,6 C 15,4 km/h (3 Bft)
29.09.2007 22:42 13,8 C 98 % 1004,5 hPa 0,3 l/m 12,8 km/h (3 Bft) W 260 0 min 0 W/m 13,5 C 10,6 C 12,8 km/h (3 Bft)
29.09.2007 22:47 13,7 C 97 % 1004,5 hPa 0,3 l/m 14,7 km/h (3 Bft) W 265 0 min 0 W/m 13,2 C 9,7 C 14,7 km/h (3 Bft)
29.09.2007 22:52 13,5 C 97 % 1005,5 hPa 0,3 l/m 10,5 km/h (2 Bft) W 265 0 min 0 W/m 13,0 C 11,2 C 10,5 km/h (2 Bft)
29.09.2007 22:57 13,2 C 96 % 1005,5 hPa 0,3 l/m 12,1 km/h (2 Bft) W 260 0 min 0 W/m 12,6 C 10,2 C 12,1 km/h (2 Bft)
29.09.2007 23:02 13,1 C 96 % 1005,5 hPa 0,3 l/m 12,8 km/h (3 Bft) W 260 0 min 0 W/m 12,5 C 9,7 C 12,8 km/h (3 Bft)
29.09.2007 23:07 12,8 C 96 % 1005,5 hPa 0,0 l/m 11,0 km/h (2 Bft) W-SW 255 0 min 0 W/m 12,2 C 10,2 C 11,0 km/h (2 Bft)
29.09.2007 23:12 12,7 C 96 % 1005,5 hPa 0,0 l/m 7,6 km/h (2 Bft) W 265 0 min 0 W/m 12,1 C 11,9 C 7,6 km/h (2 Bft)
29.09.2007 23:17 12,6 C 96 % 1005,5 hPa 0,0 l/m 9,6 km/h (2 Bft) W 260 0 min 0 W/m 12,0 C 10,7 C 9,6 km/h (2 Bft)
29.09.2007 23:22 12,7 C 96 % 1005,5 hPa 0,0 l/m 9,3 km/h (2 Bft) W 260 0 min 0 W/m 12,1 C 10,9 C 9,3 km/h (2 Bft)
29.09.2007 23:27 13,0 C 97 % 1005,5 hPa 0,0 l/m 13,5 km/h (3 Bft) W 265 0 min 0 W/m 12,5 C 9,3 C 13,5 km/h (3 Bft)
29.09.2007 23:32 13,2 C 97 % 1005,5 hPa 0,3 l/m 15,6 km/h (3 Bft) W 260 0 min 0 W/m 12,7 C 8,8 C 15,6 km/h (3 Bft)
29.09.2007 23:37 13,3 C 97 % 1005,5 hPa 0,0 l/m 20,2 km/h (4 Bft) W 260 0 min 0 W/m 12,8 C 7,5 C 20,2 km/h (4 Bft)
29.09.2007 23:42 13,3 C 97 % 1005,5 hPa 0,0 l/m 15,3 km/h (3 Bft) W-SW 255 0 min 0 W/m 12,8 C 9,0 C 15,3 km/h (3 Bft)
29.09.2007 23:47 13,2 C 97 % 1005,5 hPa 0,0 l/m 17,6 km/h (3 Bft) W-SW 255 0 min 0 W/m 12,7 C 8,1 C 17,6 km/h (3 Bft)
29.09.2007 23:52 13,2 C 97 % 1005,5 hPa 0,0 l/m 23,1 km/h (4 Bft) W 265 0 min 0 W/m 12,7 C 6,6 C 23,1 km/h (4 Bft)
29.09.2007 23:57 13,2 C 97 % 1005,5 hPa 0,0 l/m 22,1 km/h (4 Bft) W 260 0 min 0 W/m 12,7 C 6,9 C 22,1 km/h (4 Bft)
_ Min-Zeit 05:47 14:17 05:57 - 18:57 - - - - 05:47 02:47 18:57
Minimum _ 12,0 C 80 % 999,5 hPa - 0,0 km/h (0 Bft) - - - - 11,8 C 3,1 C 0,0 km/h (0 Bft)
_ Max-Zeit 13:57 05:07 22:52 10:36 00:37 - - 00:02 00:02 11:37 13:32 00:37
Maximum _ 18,5 C 99 % 1005,5 hPa 0,9 l/m 34,4 km/h
N-NO (5 Bft)
- - 0 min 0 W/m 16,1 C 17,6 C 34,4 km/h
N-NO (5 Bft)
Durchschnitt _ 14,0 C 94 % 1001,7 hPa #11,4 l/m 13,9 km/h (3 Bft) N-NO - #0 min. 0 W/m 13,0 C 10,6 C 13,9 km/h (3 Bft)
copyright by Holger Just